Home > Weather > Vaasa > Past weeks

Flag for Finland Past Weather in Vaasa, Finland — Yesterday and Last 2 Weeks

Now
48 °F

Clear.


Feels Like: 48 °F
Forecast: 47 / 61 °F
Wind: 2 mph from East

Location: Vaasa Airport

Current Time: May 29, 2016 at 3:08:39 AM

Latest Report: May 29, 2016 at 2:20 AM


Visibility: 10 mi

Pressure: 30.33 "Hg

Humidity: 94%

Dew Point: 46 °F

Location of VaasaLocation

Past Weather in Vaasa — Graph

°F

Vaasa Temperature Yesterday

Maximum temperature yesterday: 64 °F (at 2:50 PM)
Minimum temperature yesterday: 52 °F (at 4:20 AM)
Average temperature yesterday: 59 °F

High & Low Weather Summary for the Past Weeks

 TemperatureHumidityPressure
High72 °F (May 23, 3:50 PM)100% (May 14, 3:20 PM)30.36 "Hg (May 14, 3:20 PM)
Low37 °F (May 18, 2:20 AM)38% (May 23, 3:50 PM)29.59 "Hg (May 14, 3:50 PM)
Average51 °F79%29.90 "Hg
* Reported May 14 1:20 AM — May 29 1:50 AM, Vaasa, Weather by CustomWeather, © 2016

Note: Actual official high and low records may vary slightly from our data, if they occured in-between our weather recording intervals... More about our weather records

Advertising

Vaasa Weather History for the Previous 24 Hours

Scroll right to see more
 ConditionsComfort  
Time TempWeatherWind HumidityBarometerVisibility
1:50 AM
Sun, May 29
50 °FClear.1 mph94%30.33 "Hg10 mi
1:20 AM50 °FClear.1 mph94%30.33 "Hg10 mi
12:50 AM54 °FClear.2 mph88%30.33 "Hg10 mi
12:20 AM54 °FClear.2 mph88%30.33 "Hg10 mi
11:50 PM
Sat, May 28
55 °FPassing clouds.6 mph82%30.33 "HgN/A
11:20 PM55 °FPassing clouds.7 mph82%30.30 "HgN/A
10:50 PM57 °FPassing clouds.8 mph77%30.30 "HgN/A
10:20 PM59 °FSunny.3 mph72%30.30 "Hg10 mi
9:50 PM61 °FSunny.3 mph63%30.30 "Hg10 mi
9:20 PM63 °FPassing clouds.6 mph59%30.30 "HgN/A
8:50 PM63 °FPassing clouds.8 mph59%30.30 "HgN/A
8:20 PM64 °FPassing clouds.7 mph60%30.30 "HgN/A
7:50 PM64 °FPassing clouds.9 mph60%30.30 "HgN/A
7:20 PM64 °FPassing clouds.9 mph56%30.30 "HgN/A
6:50 PM64 °FPassing clouds.8 mph56%30.30 "HgN/A
6:20 PM64 °FPassing clouds.9 mph56%30.30 "HgN/A
5:50 PM64 °FPartly sunny.8 mph56%30.33 "HgN/A
5:20 PM64 °FOvercast.7 mph56%30.33 "HgN/A
4:50 PM64 °FOvercast.7 mph56%30.33 "HgN/A
4:20 PM64 °FOvercast.7 mph56%30.33 "HgN/A
3:50 PM64 °FPartly sunny.6 mph56%30.33 "HgN/A
3:20 PM64 °FOvercast.6 mph56%30.33 "HgN/A
2:50 PM64 °FPartly sunny.3 mph60%30.33 "HgN/A
2:20 PM63 °FPartly sunny.5 mph64%30.33 "HgN/A
1:50 PM63 °FBroken clouds.6 mph64%30.36 "HgN/A
1:20 PM63 °FPartly sunny.6 mph64%30.36 "HgN/A
12:50 PM63 °FScattered clouds.6 mph64%30.36 "HgN/A
12:20 PM61 °FPartly sunny.8 mph68%30.36 "HgN/A
11:50 AM59 °FPartly sunny.9 mph72%30.36 "HgN/A
11:20 AM59 °FOvercast.6 mph72%30.36 "HgN/A
10:50 AM57 °FPartly sunny.7 mph72%30.36 "HgN/A
10:20 AM57 °FOvercast.5 mph72%30.36 "HgN/A
9:50 AM57 °FOvercast.3 mph72%30.36 "HgN/A
9:20 AM55 °FOvercast.3 mph77%30.36 "HgN/A
8:50 AM55 °FOvercast.3 mph77%30.36 "HgN/A
8:20 AM55 °FMostly cloudy.5 mph77%30.36 "HgN/A
7:50 AM55 °FBroken clouds.5 mph77%30.36 "HgN/A
7:20 AM54 °FPartly sunny.2 mph82%30.36 "HgN/A
6:50 AM54 °FOvercast.2 mph82%30.33 "HgN/A
6:20 AM54 °FOvercast.2 mph82%30.33 "HgN/A
5:50 AM52 °FPartly sunny.2 mph88%30.33 "HgN/A
5:20 AM52 °FMore clouds than sun.3 mph88%30.33 "HgN/A
4:50 AM52 °FOvercast.2 mph88%30.33 "HgN/A
4:20 AM52 °FOvercast.2 mph88%30.33 "HgN/A
3:50 AM54 °FOvercast.2 mph82%30.33 "HgN/A
3:20 AM54 °FOvercast.2 mph77%30.33 "HgN/A
Weather by CustomWeather, © 2016

See weather overviewHow to use our weather pages